Flag for Japan Weather past 2 weeks in Sapporo, Japan

39 °F

Partly sunny.

Feels Like: 34 °F
Forecast: 24 / 40 °F
Wind: 8 mph from Southwest

Location: Chitose Ab

Current Time: Nov 29, 2015 at 3:13:38 PM

Latest Report: Nov 29, 2015 at 2:00 PM

Visibility: N/A

Pressure: 30.15 "Hg

Humidity: 52%

Dew point: 23 °F

Location of SapporoLocation

Historic Weather in Sapporo — Graph


Sapporo temperature yesterday

Maximum temperature yesterday: 36 °F (at 1:30 AM)
Minimum temperature yesterday: 25 °F (at 9:00 PM)
Average temperature yesterday: 32 °F

Past Weeks' High & Low Weather Summary

High59 °F (Nov 15, 11:30 AM)100% (Nov 14, 11:00 PM)30.51 "Hg (Nov 14, 11:00 PM)
Low10 °F (Nov 26, 1:00 AM)39% (Nov 19, 11:30 AM)29.27 "Hg (Nov 27, 5:30 PM)
Average36 °F83%30.06 "Hg
* Reported Nov 14 2:00 PM — Nov 29 2:00 PM, Sapporo, Weather by CustomWeather, © 2015

Note: Actual official high and low records may vary slightly from our data, if they occured in-between our weather recording intervals... More about our weather records


Sapporo weather history for previous 24 hours

Time TempWeatherWind HumidityBarometerVisibility
2:00 PM
Sun, Nov 29
39 °FPartly sunny.8 mph52%30.15 "HgN/A
1:30 PM39 °FBroken clouds.7 mph52%30.15 "HgN/A
1:00 PM39 °FBroken clouds.8 mph52%30.15 "HgN/A
12:30 PM39 °FPartly sunny.16 mph52%30.15 "HgN/A
12:00 PM39 °FPassing clouds.13 mph52%30.15 "HgN/A
11:30 AM37 °FPassing clouds.15 mph56%30.15 "HgN/A
11:00 AM37 °FPassing clouds.16 mph56%30.15 "HgN/A
10:30 AM37 °FScattered clouds.14 mph56%30.15 "HgN/A
10:00 AM37 °FScattered clouds.7 mph52%30.15 "HgN/A
9:30 AM36 °FPassing clouds.10 mph56%30.15 "HgN/A
9:00 AM36 °FPassing clouds.13 mph52%30.15 "HgN/A
8:30 AM34 °FPassing clouds.10 mph56%30.15 "HgN/A
8:00 AM30 °FPassing clouds.8 mph69%30.12 "HgN/A
7:00 AM30 °FPassing clouds.8 mph69%30.12 "HgN/A
6:30 AM25 °FPassing clouds.7 mph86%30.12 "HgN/A
6:00 AM25 °FPassing clouds.3 mph93%30.12 "HgN/A
5:30 AM23 °FPassing clouds.9 mph93%30.09 "HgN/A
5:00 AM27 °FPassing clouds.7 mph93%30.09 "HgN/A
4:30 AM25 °FPassing clouds.8 mph100%30.09 "HgN/A
4:00 AM25 °FPassing clouds.9 mph100%30.09 "HgN/A
3:30 AM25 °FPassing clouds.6 mph100%30.09 "HgN/A
3:00 AM23 °FPassing clouds.2 mph100%30.09 "HgN/A
2:30 AM23 °FPassing clouds.3 mph100%30.09 "HgN/A
2:00 AM27 °FPassing clouds.5 mph100%30.07 "HgN/A
1:30 AM27 °FPassing clouds.2 mph100%30.09 "HgN/A
1:00 AM25 °FPassing clouds.3 mph100%30.07 "Hg5 mi
12:30 AM27 °FIce fog.3 mph100%30.07 "Hg3 mi
12:00 AM27 °FPartly cloudy.5 mph100%30.07 "Hg4 mi
11:30 PM
Sat, Nov 28
27 °FIce fog.1 mph100%30.07 "Hg2 mi
11:00 PM27 °FIce fog.1 mph100%30.07 "Hg1 mi
10:30 PM27 °FIce fog.1 mph100%30.07 "Hg1 mi
10:00 PM27 °FIce fog.5 mph100%30.07 "Hg3 mi
9:30 PM27 °FChilly.3 mph100%30.07 "Hg3 mi
9:04 PM28 °FIce fog.5 mph100%30.07 "Hg3 mi
9:00 PM25 °FCold.3 mph100%30.07 "Hg3 mi
8:30 PM28 °FPassing clouds.2 mph100%30.07 "HgN/A
8:00 PM30 °FPassing clouds.2 mph100%30.07 "HgN/A
7:30 PM32 °FPassing clouds.3 mph100%30.04 "HgN/A
7:00 PM32 °FPassing clouds.3 mph100%30.04 "HgN/A
6:30 PM34 °FPassing clouds.9 mph93%30.04 "HgN/A
6:00 PM32 °FPassing clouds.9 mph100%30.04 "HgN/A
5:30 PM32 °FPassing clouds.7 mph100%30.04 "HgN/A
5:00 PM34 °FPassing clouds.7 mph93%30.04 "HgN/A
3:30 PM36 °FSnow flurries. Scattered clouds.9 mph93%30.01 "HgN/A
3:00 PM36 °FSnow flurries. Scattered clouds.10 mph87%30.01 "HgN/A
Weather by CustomWeather, © 2015

See weather overviewHow to use our weather pages